Location: Ferintosh
(52.7647°N, 112.9692°W)
Time: 23:06:44
(UTC+00:00)

A-11 Canister half - Pass Details

Date: 27 May 2024
Orbit: 1524 x 1683 km, 47.3° (Epoch: 20 June)

Event Time Altitude Azimuth Distance (km) Brightness Sun altitude
Rises 09:22:08 0° 284° (WNW) 4,756 11.4 -11.9°
Reaches altitude 10° 09:25:29 10° 277° (W) 3,791 10.9 -11.6°
Maximum altitude 09:33:55 36° 215° (SW) 2,365 9.5 -11.0°
Drops below altitude 10° 09:42:35 10° 154° (SSE) 3,891 10.8 -10.4°
Sets 09:46:05 0° 146° (SSE) 4,893 11.4 -10.1°
